Weather History for Boonville, MO

Change the Weather History Date:

Thursday, April 25, 2013

  Actual Average Record
Temperature  
Mean Temperature 51 °F -  
Max Temperature 80 °F 69 °F 90 °F (1989)
Min Temperature 38 °F 46 °F 31 °F (1956)
Degree Days  
Heating Degree Days 14    
Growing Degree Days 1 (Base 50)    
Moisture  
Dew Point 33 °F    
Average Humidity 52    
Maximum Humidity 76    
Minimum Humidity 31    
Precipitation  
Precipitation 0.00 in - - ()
Sea Level Pressure  
Sea Level Pressure 30.27 in    
Wind  
Wind Speed 5 mph (SSW)    
Max Wind Speed 8 mph    
Max Gust Speed -    
Visibility 10 miles    
Events      
Averages and records for this station are not official NWS values.
T = Trace of Precipitation, MM = Missing Value Source: NWS Daily Summary

Daily Weather History Graph

Daily Weather History Graph

Search for Another Location

Airport:

Trip Planner

Search our weather history database for the weather conditions in past years. The results will help you decide how hot, cold, wet, or windy it might be!

Date:

Astronomy

Apr. 25, 2013 Rise Set
Actual Time 6:20 AM CDT 7:57 PM CDT
Civil Twilight 5:51 AM CDT 8:26 PM CDT
Nautical Twilight 5:17 AM CDT 9:00 PM CDT
Astronomical Twilight 4:41 AM CDT 9:36 PM CDT
Moon 8:11 PM CDT (4/25) 6:03 AM CDT (4/25)
Length of Visible Light 14h 34m
Length of Day
13h 37m
Full, 100% of the Moon is Illuminated
Apr 25
Full
Apr 25
Full
May 2
Last Quarter
May 9
New
May 17
First Quarter

Hourly Weather History & Observations

Time (CDT) Temp. Windchill Dew Point Humidity Pressure Visibility Wind Dir Wind Speed Gust Speed Precip Events Conditions
12:15 AM 41.4 °F 38.4 °F 31.3 °F 67% 30.23 in 10.0 mi South 4.6 mph - N/A   Clear
12:35 AM 41.2 °F 37.3 °F 31.5 °F 68% 30.23 in 10.0 mi SSW 5.8 mph - N/A   Clear
12:55 AM 41.5 °F 37.8 °F 31.3 °F 67% 30.23 in 10.0 mi SSW 5.8 mph - N/A   Clear
1:15 AM 41.4 °F 37.6 °F 31.5 °F 68% 30.23 in 10.0 mi SSW 5.8 mph - N/A   Clear
1:35 AM 41.7 °F 37.3 °F 31.5 °F 67% 30.23 in 10.0 mi SSW 6.9 mph - N/A   Clear
1:55 AM 42.6 °F 37.8 °F 31.3 °F 64% 30.23 in 10.0 mi SSW 8.1 mph - N/A   Clear
2:15 AM 43.0 °F 38.2 °F 31.5 °F 64% 30.23 in 10.0 mi SW 8.1 mph - N/A   Clear
2:35 AM 43.0 °F 38.2 °F 31.6 °F 64% 30.23 in 10.0 mi SW 8.1 mph - N/A   Clear
2:55 AM 42.8 °F 38.6 °F 31.8 °F 65% 30.23 in 10.0 mi SW 6.9 mph - N/A   Clear
3:15 AM 42.4 °F 38.1 °F 31.6 °F 66% 30.23 in 10.0 mi SW 6.9 mph - N/A   Clear
3:35 AM 42.1 °F 37.7 °F 32.0 °F 67% 30.25 in 10.0 mi West 6.9 mph - N/A   Clear
3:55 AM 42.1 °F 38.4 °F 32.0 °F 67% 30.25 in 10.0 mi WSW 5.8 mph - N/A   Clear
4:15 AM 41.7 °F 37.3 °F 31.8 °F 68% 30.26 in 10.0 mi WSW 6.9 mph - N/A   Clear
4:35 AM 41.4 °F 38.4 °F 32.0 °F 69% 30.26 in 10.0 mi West 4.6 mph - N/A   Clear
4:55 AM 41.0 °F 38.0 °F 31.8 °F 70% 30.26 in 10.0 mi WSW 4.6 mph - N/A   Clear
5:15 AM 40.6 °F 37.5 °F 32.0 °F 71% 30.27 in 10.0 mi WSW 4.6 mph - N/A   Clear
5:35 AM 40.5 °F 37.3 °F 32.0 °F 72% 30.27 in 10.0 mi WSW 4.6 mph - N/A   Clear
5:55 AM 39.9 °F 37.8 °F 32.0 °F 73% 30.28 in 10.0 mi SW 3.5 mph - N/A   Clear
6:15 AM 39.4 °F 37.2 °F 32.0 °F 75% 30.28 in 10.0 mi SW 3.5 mph - N/A   Clear
6:35 AM 39.2 °F 35.9 °F 32.0 °F 75% 30.28 in 10.0 mi SW 4.6 mph - N/A   Clear
6:55 AM 38.8 °F 35.4 °F 32.0 °F 76% 30.29 in 10.0 mi SW 4.6 mph - N/A   Clear
7:15 AM 39.4 °F 36.1 °F 32.2 °F 75% 30.30 in 10.0 mi SW 4.6 mph - N/A   Clear
7:35 AM 40.8 °F 37.8 °F 32.7 °F 73% 30.30 in 10.0 mi SW 4.6 mph - N/A   Clear
7:55 AM 42.3 °F 38.6 °F 33.3 °F 70% 30.31 in 10.0 mi SW 5.8 mph - N/A   Clear
8:15 AM 43.9 °F 41.3 °F 34.0 °F 68% 30.31 in 10.0 mi WSW 4.6 mph - N/A   Clear
8:35 AM 45.5 °F 44.2 °F 34.7 °F 66% 30.32 in 10.0 mi WSW 3.5 mph - N/A   Clear
8:55 AM 47.1 °F - 35.2 °F 63% 30.32 in 10.0 mi SW 3.5 mph - N/A   Clear
9:15 AM 48.4 °F - 36.3 °F 63% 30.32 in 10.0 mi SW 3.5 mph - N/A   Clear
9:35 AM 50.0 °F - 36.1 °F 59% 30.33 in 10.0 mi Calm Calm - N/A   Clear
9:55 AM 51.4 °F - 34.5 °F 52% 30.33 in 10.0 mi SSW 3.5 mph - N/A   Clear
10:15 AM 53.1 °F - 32.9 °F 46% 30.33 in 10.0 mi SW 4.6 mph - N/A   Clear
10:35 AM 54.0 °F - 31.8 °F 43% 30.33 in 10.0 mi Calm Calm - N/A   Clear
10:55 AM 54.5 °F - 31.6 °F 42% 30.33 in 10.0 mi Calm Calm - N/A   Clear
11:15 AM 55.2 °F - 29.3 °F 37% 30.34 in 10.0 mi South 4.6 mph - N/A   Clear
11:55 AM 57.0 °F - 30.6 °F 37% 30.34 in 10.0 mi SSE 4.6 mph - N/A   Clear
12:15 PM 58.3 °F - 30.9 °F 35% 30.34 in 10.0 mi SSW 4.6 mph - N/A   Clear
12:35 PM 58.3 °F - 30.9 °F 35% 30.33 in 10.0 mi SW 4.6 mph - N/A   Clear
12:55 PM 58.6 °F - 29.8 °F 34% 30.33 in 10.0 mi Calm Calm - N/A   Clear
1:15 PM 59.4 °F - 30.9 °F 34% 30.32 in 10.0 mi South 6.9 mph - N/A   Clear
1:35 PM 60.1 °F - 31.3 °F 34% 30.31 in 10.0 mi SE 5.8 mph - N/A   Clear
1:55 PM 60.8 °F - 31.5 °F 33% 30.31 in 10.0 mi South 5.8 mph - N/A   Clear
2:15 PM 61.3 °F - 30.9 °F 32% 30.30 in 10.0 mi SSW 8.1 mph - N/A   Clear
2:35 PM 61.5 °F - 31.1 °F 32% 30.30 in 10.0 mi SSE 3.5 mph - N/A   Clear
2:55 PM 62.2 °F - 32.9 °F 33% 30.29 in 10.0 mi South 5.8 mph - N/A   Clear
3:15 PM 62.2 °F - 31.5 °F 31% 30.29 in 10.0 mi SW 3.5 mph - N/A   Clear
3:35 PM 63.0 °F - 32.2 °F 32% 30.28 in 10.0 mi SW 8.1 mph - N/A   Clear
3:55 PM 63.7 °F - 32.7 °F 31% 30.27 in 10.0 mi South 4.6 mph - N/A   Clear
4:15 PM 63.5 °F - 32.4 °F 31% 30.26 in 10.0 mi SE 6.9 mph - N/A   Clear
4:35 PM 63.3 °F - 33.1 °F 32% 30.25 in 10.0 mi ESE 3.5 mph - N/A   Clear
4:55 PM 63.9 °F - 32.9 °F 31% 30.26 in 10.0 mi SSE 6.9 mph - N/A   Clear
5:15 PM 64.4 °F - 33.3 °F 31% 30.25 in 10.0 mi SW 4.6 mph - N/A   Clear
5:35 PM 64.0 °F - 32.9 °F 31% 30.25 in 10.0 mi South 3.5 mph - N/A   Clear
5:55 PM 64.0 °F - 34.3 °F 33% 30.25 in 10.0 mi Calm Calm - N/A   Clear
6:15 PM 63.3 °F - 34.3 °F 34% 30.25 in 10.0 mi SSE 8.1 mph - N/A   Clear
6:35 PM 62.1 °F - 35.6 °F 37% 30.24 in 10.0 mi SSE 5.8 mph - N/A   Clear
6:55 PM 61.2 °F - 37.6 °F 42% 30.23 in 10.0 mi Calm Calm - N/A   Clear
7:15 PM 60.3 °F - 37.9 °F 44% 30.23 in 10.0 mi ESE 4.6 mph - N/A   Clear
7:35 PM 59.0 °F - 37.4 °F 45% 30.23 in 10.0 mi ESE 6.9 mph - N/A   Clear
7:55 PM 57.7 °F - 37.2 °F 46% 30.22 in 10.0 mi SE 5.8 mph - N/A   Clear
8:15 PM 56.8 °F - 36.9 °F 47% 30.21 in 10.0 mi ESE 6.9 mph - N/A   Clear
8:55 PM 55.0 °F - 37.9 °F 53% 30.22 in 10.0 mi ESE 4.6 mph - N/A   Clear
9:15 PM 54.9 °F - 37.6 °F 52% 30.23 in 10.0 mi ESE 5.8 mph - N/A   Clear
9:35 PM 54.5 °F - 37.2 °F 52% 30.23 in 10.0 mi SE 6.9 mph - N/A   Clear
9:55 PM 54.5 °F - 37.4 °F 52% 30.24 in 10.0 mi SE 6.9 mph - N/A   Clear
10:15 PM 54.5 °F - 37.6 °F 53% 30.24 in 10.0 mi SE 5.8 mph - N/A   Clear
10:35 PM 54.0 °F - 38.3 °F 55% 30.24 in 10.0 mi SSE 4.6 mph - N/A   Clear
10:55 PM 53.4 °F - 38.1 °F 56% 30.24 in 10.0 mi SE 6.9 mph - N/A   Clear
11:15 PM 53.4 °F - 38.5 °F 57% 30.23 in 10.0 mi SE 8.1 mph - N/A   Clear
11:35 PM 54.0 °F - 37.6 °F 54% 30.22 in 10.0 mi ESE 8.1 mph - N/A   Clear
11:55 PM 54.0 °F - 37.4 °F 54% 30.22 in 10.0 mi ESE 8.1 mph - N/A   Clear